Location: Albert
(0.3874°N, 29.8711°E)
Time: 14:49:04
(UTC+00:00)

Daily predictions for brighter satellites

Satellite Brightness Start Highest point End
(mag) Time Altitude Azimuth Time Altitude Azimuth Time Altitude Azimuth
Skynet4D Del rocket 4.4 16:19:13 10° WNW 16:25:33 67° SSW 16:32:53 10° SE
ARIANE 5 R/B 2.8 16:24:54 10° W 16:27:31 74° S 16:38:00 10° E
Meteor 2-5 Rocket 4.2 16:25:01 10° SSE 16:30:16 39° E 16:35:36 10° NNE
Cosmos 841 Rocket 4.0 16:28:50 10° SSW 16:34:01 67° WNW 16:39:08 10° N
IRS-1C Rocket 4.2 16:28:53 10° SSE 16:34:10 86° WSW 16:39:26 10° NNW
Cosmos 2208 Rocket 4.4 16:30:32 10° SSW 16:35:49 74° WNW 16:41:10 10° N
ASTEX 1 3.5 16:31:45 10° S 16:36:44 86° W 16:41:43 10° N
SJ 16-02 3.2 16:37:32 10° NE 16:39:40 13° ENE 16:41:45 10° ESE
OAO 3 Copernicus 4.4 16:34:34 10° SW 16:39:40 83° NW 16:44:44 10° NE
CZ-4 R/B 1.9 16:36:47 10° SSE 16:40:40 40° ENE 16:44:27 10° N
NOSS 7 (D) 4.3 16:37:39 10° SSW 16:41:25 67° ESE 16:44:42 10° NNE
SL-14 R/B 4.5 16:38:42 10° SE 16:41:43 22° E 16:44:43 10° NE
Cosmos 1777 Rocket 4.4 16:37:52 10° NNW 16:43:07 71° WSW 16:48:22 10° S
Cosmos 1470 3.0 16:40:35 10° N 16:44:30 73° W 16:48:29 10° S
Cosmos 2266 Rocket 3.9 16:38:54 10° S 16:44:53 65° E 16:50:51 10° NNE
Cosmos 2084 Rocket 3.8 16:41:01 10° NNW 16:45:31 71° WSW 16:50:00 10° SSE
Cosmos 1726 2.9 16:42:37 10° NNE 16:45:52 30° E 16:49:06 10° SSE
Cosmos 1437 2.4 16:45:28 10° S 16:48:29 87° E 16:51:28 10° N
NOAA 11 4.2 16:44:11 10° S 16:49:39 87° WSW 16:55:05 10° NNW
USA 234 3.4 16:48:33 10° SE 16:54:59 59° NE 17:01:23 10° NNW
Meteor 1-24 Rocket 3.8 16:50:45 10° S 16:56:09 53° E 17:01:44 10° NNE
Cosmos 1939 Rocket 2.9 16:52:44 10° S 16:56:53 86° W 17:00:57 10° NNW
MOS 1 Rocket 3.9 16:52:16 10° NNE 16:57:07 43° ESE 17:02:11 10° S
Mugunghwa Rocket 4.2 16:52:26 10° SW 16:58:31 48° SSE 17:04:43 11° E
Cosmos 2360 Rocket 2.8 16:55:51 10° SSE 17:00:47 31° ESE 17:05:41 10° NE
SL-24 R/B 4.3 16:56:38 10° N 17:01:34 84° W 17:05:51 10° SSW
Ariane H10 4.3 16:47:06 10° W 17:04:58 66° S 17:07:36 22° ESE
CZ-2D R/B 3.3 17:01:43 10° S 17:05:35 80° WSW 17:09:25 10° NNW
Cosmos 1340 Rocket 2.9 17:02:52 10° N 17:06:49 75° W 17:10:43 10° S
Atlas 2A Centaur Rocket 3.4 17:05:48 10° SW 17:09:41 52° SE 17:25:52 10° ENE
ARIANE 5 R/B 4.1 16:54:16 10° W 17:09:46 62° N 17:13:05 16° ENE
Cosmos 2227 Rocket 2.1 17:04:32 10° N 17:10:08 70° ENE 17:15:04 14° SSE
GPS 2-17 Rocket1 3.1 17:07:21 10° WNW 17:11:54 69° NNE 17:14:26 26° E
deb Ariane 4.0 17:13:15 10° WSW 17:16:02 34° S 17:16:55 28° SSE
Cosmos 1626 2.0 17:13:08 10° S 17:16:50 87° W 17:20:31 10° N
GPS 2-12 Rocket1 3.9 17:13:31 10° SW 17:17:51 33° SSE 17:19:03 29° SE
Cosmos 2219 3.7 17:12:33 10° NNW 17:18:03 59° WSW 17:23:36 10° S
Cosmos 1818 3.6 17:12:49 10° SSW 17:18:12 81° WNW 17:23:35 10° NNE
CZ-2C R/B 3.7 17:15:21 21° SE 17:18:50 42° ENE 17:24:13 10° N
Cosmos 1553 Rocket 4.0 17:12:54 10° N 17:19:00 84° W 17:25:13 10° S
SL-16 R/B 3.1 17:13:49 10° SSW 17:19:16 50° WNW 17:24:44 10° N
ARGOS 4.1 17:19:37 25° E 17:20:29 26° ENE 17:24:54 10° NNE
FALCON 9 DEB 3.2 17:18:17 10° NW 17:21:41 70° SW 17:22:50 38° SSE
SL-4 R/B 4.2 17:18:33 10° WNW 17:22:31 26° SW 17:26:31 10° S
CZ-2C R/B 4.2 17:18:44 10° NNE 17:23:09 39° ESE 17:24:54 29° SSE
BLOCK DM-SL R/B 1.9 17:22:37 10° W 17:25:33 87° S 17:31:10 23° E
S3M 3.9 17:20:12 10° N 17:26:34 77° E 17:32:55 10° S
Hubble Space Telescope 2.8 17:25:00 10° W 17:28:30 27° NNW 17:32:00 10° NNE
Nadezhda 2 Rocket 4.4 17:22:29 10° S 17:28:35 64° E 17:34:44 10° NNE
Cosmos 1892 Rocket 4.3 17:25:21 10° SSW 17:29:33 51° W 17:33:44 10° N
SEDSat Delta rocket 3.8 17:24:38 10° SW 17:29:50 49° SE 17:31:55 34° E
Meteor 2-14 Rocket 4.4 17:26:05 10° S 17:32:11 67° E 17:38:16 10° NNE
Meteor 2-21 4.4 17:26:50 10° S 17:33:02 76° E 17:39:13 10° N
ATLAS 5 CENTAUR R/B 2.8 17:30:08 10° SW 17:34:00 38° WNW 17:37:43 10° N
CSL-04 Debris 4.4 17:33:29 12° S 17:38:27 68° WSW 17:43:51 10° NNW
YAOGAN 1 4.1 17:35:25 10° SSW 17:39:21 34° WSW 17:43:15 10° NW
Yuri Rocket 4.2 17:36:39 10° W 17:41:25 46° SSW 17:43:26 34° SSE
USA 186 4.4 17:44:54 13° NNE 17:44:54 13° NNE 17:45:23 10° NNE
Lacrosse 4 Rocket 4.2 17:43:29 10° W 17:44:50 11° WSW 17:46:13 10° SW
CZ-2C R/B 2.6 17:39:49 10° N 17:45:03 82° WNW 17:50:14 10° SSW
CSL-04 Rocket 4.2 17:41:13 13° S 17:46:04 59° WSW 17:51:29 10° NNW
USA 215 3.9 17:41:14 10° NNE 17:47:34 56° NW 17:53:56 10° SW
Cosmos 1244 Rocket 4.3 17:42:12 10° S 17:48:22 86° E 17:54:29 10° N
Cosmos 883 Rocket 4.4 17:42:17 10° N 17:48:30 67° E 17:50:38 42° SSE
Ariane Rocket 3.5 17:49:15 43° ENE 17:49:15 43° ENE 17:53:29 10° N
Cosmos 1626 Rocket 4.0 17:50:03 50° NNE 17:50:03 50° NNE 17:53:26 10° N
FUSE 3.8 17:46:30 10° WNW 17:51:50 75° SSW 17:52:26 66° SSE
Cosmos 1898 Rocket 3.3 17:47:11 10° N 17:52:21 85° ENE 17:53:07 65° SSE
Delta 198 4.5 17:46:00 10° WSW 17:52:50 88° SSE 17:55:33 41° ENE
Cosmos 1908 4.0 17:54:32 10° NNW 17:58:18 49° W 17:58:26 49° W
IRS-1A Rocket 4.4 17:59:48 55° NE 17:59:48 55° NE 18:04:44 10° N
H-2A R/B 2.2 18:00:49 49° S 18:02:14 72° WSW 18:07:38 10° NNW
CAT/Thesee 4.4 17:51:48 10° W 18:03:46 83° SW 18:03:46 83° SW
Cosmos 990 Rocket 4.5 18:03:51 10° NNW 18:08:51 54° WSW 18:09:36 49° SW
Cosmos 1375 Rocket 4.4 18:03:22 10° NNW 18:09:49 86° WSW 18:10:34 71° S
Cosmos 2297 Rocket 4.5 18:06:53 10° WNW 18:10:51 20° WSW 18:14:48 10° SSW
SJ 16-02 3.4 18:14:29 10° NW 18:17:57 23° WSW 18:18:48 22° WSW
ARIANE 5 DEB (SYLDA) 3.9 18:09:48 10° W 18:17:50 59° W 18:17:50 59° W
NOSS 3-1 (C) 4.3 18:17:32 10° N 18:26:05 60° ENE 18:26:05 60° ENE
Milstar 3 Cent rocket 3.6 18:27:05 10° NNW 18:30:34 31° N 18:30:34 31° N
Ariane H10 4.0 18:33:38 10° WSW 18:37:38 49° SSW 18:37:38 49° SSW
USA 229 DEB 4.4 18:32:53 10° NNW 18:38:41 51° NNE 18:38:41 51° NNE
USA 229 4.4 18:32:58 10° NNW 18:38:45 50° NNE 18:38:45 50° NNE
Cosmos 2263 Rocket 4.5 18:57:29 10° NNW 18:58:34 16° NNW 18:58:34 16° NNW
